DELTA 1 DEB, 10707

Orbit data source: Space-Track

DELTA 1 DEB, 10707 is space debris in LEO originally from a launch on Thu, 29 Jul 1976 UTC launched from the Air Force Western Test Range (AFWTR). Debris objects in space refer to the collection of defunct objects orbiting the Earth. Examples of debris include non-operational satellites, rocket bodies, and fragments generated from explosions, collisions, or faulty payload assembly.

Loading next visibility...
Identifier
10707, 1976-077AC
Orbit
LEO
Country
Flag of USUS
Related business
Manufacturer
Unknown
Mission
Spacecraft
Bus & Motor
Unknown
Mass
Unknown
Launch date (UTC)
1976-07-29 (49 years ago)
Launch vehicle
Unknown
Launch site
Air Force Western Test Range (AFWTR)
Object type
Payload
Rocket body
Debris
Shape & HBR
Unknown shape, 0.1 m
Radar Cross Section
Small (<0.1 m²)

Expand to show TLE details & history
Last TLE update: 22 hours ago

TLE from 22 hours ago
0 DELTA 1 DEB
1 10707U 76077AC  25292.85327502  .00000775  00000-0  93313-2 0  9994
2 10707 102.2084 315.8538 0263428 352.9457 192.3486 11.98325487123565
Epoch: 2025-10-19T20:28Z
TLE epoch observation values (Epoch: 2025-10-19T20:28:42.961Z)
Latitude
-4.68734°
Longitude
159.09906°
Altitude
1,899.439 km
Speed
6.85 km/s
True Right ascension
08h 59m 22s
True Declination
-4° 39' 48"
Sunlit
Object was in daylight at epoch
Visualization orbit readout
Latitude
Unknown
Longitude
Unknown
Altitude
Unknown
Speed
Unknown
Apparent Right ascension
Unknown
Apparent Declination
Unknown
Sunlit
N/A
Visualization observer readout
Local Sidereal Time
13:31:33
Azimuth
Unknown
Elevation
Unknown
Doppler factor
Unknown
Orbital elements
Apogee altitude
1,898.438 km
Perigee altitude
1,473.573 km
Semi-major axis
8,064.143 km
Eccentricity
0.02634
Inclination
102.2084°
RAAN
315.8538°
Arg. of periapsis
352.9457°
True anomaly
191.72319°
Mean anomaly
192.3486°
Eccentric anomaly
192.03392°
Mean motion
2.99713 °/min
Orbital period
120.11 mins
BSTAR
0.0093313
Loading maneuver chart data...
Computing Atmospheric mass density...
Loading historical data...
Loading historical data...
Loading historical data...
Loading historical data...
Loading historical data...
Loading historical data...
Loading historical data...

Documentation

Showing up to 5 results
|